Weather History for Baltimore, MD

Change the Weather History Date:

Sunday, July 6, 2014

  Actual Average Record
Temperature  
Mean Temperature 72 °F 77 °F  
Max Temperature 86 °F 87 °F 105 °F (2010)
Min Temperature 58 °F 67 °F 51 °F (1979)
Degree Days  
Heating Degree Days 0 0  
Month to date heating degree days 0 0  
Since 1 June heating degree days 2 15  
Since 1 July heating degree days 0 0  
Cooling Degree Days 7 12  
Month to date cooling degree days 68 70  
Year to date cooling degree days 409 392  
Since 1 June cooling degree days 324 308  
Growing Degree Days 22 (Base 50)    
Moisture  
Dew Point 57 °F    
Average Humidity 64    
Maximum Humidity 93    
Minimum Humidity 34    
Precipitation  
Precipitation 0.00 in 0.11 in 1.34 in (1931)
Month to date precipitation 0.96 0.72  
Year to date precipitation 28.53 21.21  
Snow  
Snow 0.00 in 0.00 in - ()
Month to date snowfall 0.0 0.0  
Since 1 July snowfall 0.0 0.0  
Snow Depth 0.00 in    
Sea Level Pressure  
Sea Level Pressure 30.05 in    
Wind  
Wind Speed 6 mph (SSW)    
Max Wind Speed 15 mph    
Max Gust Speed 21 mph    
Visibility 10 miles    
Events      
T = Trace of Precipitation, MM = Missing Value Source: NWS Daily Summary

Daily Weather History Graph

Daily Weather History Graph

Search for Another Location

Airport:

Trip Planner

Search our weather history database for the weather conditions in past years. The results will help you decide how hot, cold, wet, or windy it might be!

Date:

Astronomy

Jul. 06, 2014 Rise Set
Actual Time 5:46 AM EDT 8:35 PM EDT
Civil Twilight 5:15 AM EDT 9:07 PM EDT
Nautical Twilight 4:34 AM EDT 9:47 PM EDT
Astronomical Twilight 3:49 AM EDT 10:33 PM EDT
Moon 2:35 PM EDT (7/6) 1:02 AM EDT (7/6)
Length of Visible Light 15h 52m
Length of Day
14h 48m
Waxing Gibbous, 62% of the Moon is Illuminated
Jul 6
Waxing Gibbous
Jul 12
Full
Jul 18
Last Quarter
Jul 26
New
Aug 3
First Quarter

Hourly Weather History & Observations

Time (EDT) Temp. Heat Index Dew Point Humidity Pressure Visibility Wind Dir Wind Speed Gust Speed Precip Events Conditions
12:54 AM 63.0 °F - 54.0 °F 72% 30.15 in 10.0 mi Calm Calm - N/A   Scattered Clouds
1:54 AM 62.1 °F - 54.0 °F 75% 30.14 in 10.0 mi Calm Calm - N/A   Scattered Clouds
2:54 AM 59.0 °F - 54.0 °F 83% 30.13 in 10.0 mi Calm Calm - N/A   Scattered Clouds
3:54 AM 60.1 °F - 54.0 °F 80% 30.12 in 10.0 mi Calm Calm - N/A   Scattered Clouds
4:54 AM 61.0 °F - 54.0 °F 78% 30.12 in 10.0 mi SW 3.5 mph - N/A   Scattered Clouds
5:54 AM 57.9 °F - 55.0 °F 90% 30.13 in 10.0 mi Calm Calm - N/A   Mostly Cloudy
6:54 AM 61.0 °F - 55.9 °F 83% 30.14 in 10.0 mi Calm Calm - N/A   Mostly Cloudy
7:54 AM 66.0 °F - 60.1 °F 81% 30.13 in 10.0 mi SSW 3.5 mph - N/A   Overcast
8:54 AM 72.0 °F - 57.9 °F 61% 30.13 in 10.0 mi Variable 5.8 mph - N/A   Overcast
9:54 AM 73.9 °F - 57.9 °F 57% 30.12 in 10.0 mi SSW 8.1 mph - N/A   Overcast
10:54 AM 77.0 °F - 55.9 °F 48% 30.10 in 10.0 mi WSW 10.4 mph - N/A   Mostly Cloudy
11:54 AM 80.1 °F 80.2 °F 55.9 °F 43% 30.08 in 10.0 mi SW 8.1 mph - N/A   Mostly Cloudy
12:54 PM 81.0 °F 80.8 °F 55.9 °F 42% 30.06 in 10.0 mi South 11.5 mph - N/A   Mostly Cloudy
1:54 PM 82.9 °F 82.1 °F 55.9 °F 39% 30.03 in 10.0 mi SW 5.8 mph - N/A   Mostly Cloudy
2:54 PM 84.0 °F 83.3 °F 57.0 °F 40% 30.02 in 10.0 mi SSW 8.1 mph - N/A   Mostly Cloudy
3:54 PM 84.9 °F 83.3 °F 54.0 °F 34% 29.99 in 10.0 mi WSW 12.7 mph - N/A   Scattered Clouds
4:54 PM 84.9 °F 83.3 °F 54.0 °F 34% 29.98 in 10.0 mi SW 9.2 mph 18.4 mph N/A   Scattered Clouds
5:54 PM 84.9 °F 83.7 °F 55.9 °F 37% 29.97 in 10.0 mi SW 8.1 mph - N/A   Mostly Cloudy
6:54 PM 84.0 °F 83.5 °F 57.9 °F 41% 29.96 in 10.0 mi SSW 10.4 mph - N/A   Scattered Clouds
7:54 PM 81.0 °F 81.1 °F 57.9 °F 45% 29.95 in 10.0 mi South 4.6 mph - N/A   Scattered Clouds
8:54 PM 78.1 °F - 64.0 °F 62% 29.95 in 10.0 mi SE 5.8 mph - N/A   Mostly Cloudy
9:54 PM 75.9 °F - 66.9 °F 74% 29.96 in 10.0 mi SSE 5.8 mph - N/A   Mostly Cloudy
10:54 PM 75.0 °F - 66.9 °F 76% 29.95 in 10.0 mi SSE 4.6 mph - N/A   Mostly Cloudy
11:54 PM 75.9 °F - 62.1 °F 62% 29.95 in 10.0 mi South 6.9 mph - N/A   Mostly Cloudy